Location: Bourg-d�Oueil
(42.8588°N, 0.4991°E)
Time: 01:45:43
(UTC+00:00)

USA 267 - Pass Details

Date: 16 June 2021
Orbit: 1102 x 1106 km, 123.0° (Epoch: 03 August)

Event Time Altitude Azimuth Distance (km) Brightness Sun altitude
Exits shadow 22:12:27 - 96° (E) 3,338 5.5 -19.4°
Reaches altitude 10° 22:13:30 10° 93° (E) 2,958 5.2 -19.5°
Maximum altitude 22:19:32 42° 26° (NNE) 1,528 4.3 -19.9°
Drops below altitude 10° 22:25:36 10° 318° (NW) 2,968 6.6 -20.4°
Sets 22:28:13 0° 312° (NW) 3,928 7.3 -20.5°
